Pensacola NAS, FL

9:09 PM CST on December 16, 2017 (GMT -0600)
Pensacola Naval Air Station

Weather History for KNPA - March, 2014

Change the Weather History Date:

Monday, March 31, 2014

  Actual Average Record
Temperature  
Mean Temperature 56 °F -  
Max Temperature 69 °F 70 °F 82 °F (2017)
Min Temperature 44 °F 53 °F 32 °F (2003)
Degree Days  
Heating Degree Days 9    
Growing Degree Days 6 (Base 50)    
Moisture  
Dew Point 47 °F    
Average Humidity 77    
Maximum Humidity 100    
Minimum Humidity 43    
Precipitation  
Precipitation 0.00 in - - ()
Sea Level Pressure  
Sea Level Pressure 30.15 in    
Wind  
Wind Speed 4 mph (SE)    
Max Wind Speed 12 mph    
Max Gust Speed -    
Visibility 8 miles    
Events      
Averages and records for this station are not official NWS values.
T = Trace of Precipitation, MM = Missing Value Source: NWS Daily Summary

Daily Weather History Graph

Daily Weather History Graph

Search for Another Location

Airport or City:

Trip Planner

Search our weather history database for the weather conditions in past years. The results will help you decide how hot, cold, wet, or windy it might be!

Date:

Astronomy

Mar. 31, 2014 Rise Set
Actual Time 6:39 AM CDT 7:07 PM CDT
Civil Twilight 6:15 AM CDT 7:31 PM CDT
Nautical Twilight 5:47 AM CDT 8:00 PM CDT
Astronomical Twilight 5:18 AM CDT 8:28 PM CDT
Moon 7:07 AM CDT (3/31) 8:19 PM CDT (3/31)
Length of Visible Light 13h 16m
Length of Day
12h 27m
New Moon, 1% of the Moon is Illuminated
Mar 31
New Moon
Apr 7
First Quarter
Apr 15
Full
Apr 22
Last Quarter
Apr 29
New

Hourly Weather History & Observations

Time (CDT) Temp. Windchill Dew Point Humidity Pressure Visibility Wind Dir Wind Speed Gust Speed Precip Events Conditions
12:56 AM 46.0 °F - 45.0 °F 96% 30.14 in 10.0 mi Calm Calm - N/A   Clear
1:56 AM 46.0 °F 44.8 °F 46.0 °F 100% 30.13 in 8.0 mi WNW 3.5 mph - N/A   Clear
2:56 AM 45.0 °F 43.5 °F 44.1 °F 97% 30.13 in 5.0 mi NNW 3.5 mph - N/A   Clear
3:56 AM 46.9 °F - 46.9 °F 100% 30.13 in 4.0 mi NNW 4.6 mph - N/A   Clear
4:56 AM 45.0 °F 42.6 °F 45.0 °F 100% 30.13 in 2.0 mi North 4.6 mph - N/A   Clear
5:12 AM 44.1 °F 41.5 °F 44.1 °F 100% 30.13 in 4.0 mi North 4.6 mph - N/A   Clear
5:48 AM 44.1 °F - 43.0 °F 96% 30.13 in 2.5 mi Calm Calm - N/A   Clear
5:56 AM 44.1 °F - 43.0 °F 96% 30.14 in 7.0 mi Calm Calm - N/A   Scattered Clouds
6:56 AM 45.0 °F 42.6 °F 44.1 °F 97% 30.15 in 7.0 mi NNE 4.6 mph - N/A   Partly Cloudy
7:56 AM 52.0 °F - 46.0 °F 80% 30.17 in 10.0 mi NNE 4.6 mph - N/A   Clear
8:56 AM 60.1 °F - 45.0 °F 57% 30.18 in 10.0 mi Variable 5.8 mph - N/A   Clear
9:56 AM 64.0 °F - 42.1 °F 45% 30.19 in 10.0 mi East 9.2 mph - N/A   Clear
10:56 AM 66.0 °F - 43.0 °F 43% 30.20 in 10.0 mi ESE 11.5 mph - N/A   Partly Cloudy
11:56 AM 66.9 °F - 46.9 °F 49% 30.20 in 10.0 mi ESE 11.5 mph - N/A   Partly Cloudy
12:56 PM 66.9 °F - 46.9 °F 49% 30.19 in 10.0 mi SE 9.2 mph - N/A   Scattered Clouds
1:56 PM 68.0 °F - 48.9 °F 50% 30.17 in 10.0 mi SE 9.2 mph - N/A   Scattered Clouds
2:56 PM 68.0 °F - 46.9 °F 47% 30.14 in 10.0 mi SSE 10.4 mph - N/A   Mostly Cloudy
3:56 PM 66.9 °F - 46.9 °F 49% 30.14 in 10.0 mi South 10.4 mph - N/A   Mostly Cloudy
4:56 PM 66.0 °F - 46.9 °F 50% 30.12 in 10.0 mi South 8.1 mph - N/A   Scattered Clouds
5:56 PM 64.9 °F - 50.0 °F 58% 30.12 in 10.0 mi SSE 6.9 mph - N/A   Scattered Clouds
6:56 PM 61.0 °F - 50.0 °F 67% 30.12 in 10.0 mi SSE 5.8 mph - N/A   Scattered Clouds
7:56 PM 54.0 °F - 51.1 °F 90% 30.12 in 10.0 mi South 3.5 mph - N/A   Scattered Clouds
8:56 PM 52.0 °F - 51.1 °F 97% 30.14 in 10.0 mi SW 3.5 mph - N/A   Scattered Clouds
9:56 PM 54.0 °F - 52.0 °F 93% 30.13 in 10.0 mi South 4.6 mph - N/A   Partly Cloudy
10:56 PM 51.1 °F - 50.0 °F 96% 30.14 in 10.0 mi Calm Calm - N/A   Clear
11:56 PM 50.0 °F - 48.9 °F 96% 30.14 in 5.0 mi Calm Calm - N/A   Clear